星链-5033 (STARLINK-5033 )

导读

STARLINK-5033是美国太空探索技术公司SpaceX星链卫星互联网项目的一员,于2023年1月31日发射。星链项目计划在近地轨道部署上万颗卫星,为全球偏远地区提供高速、低延迟的宽带互联网接入服务。作为巨型星座的组成部分,STARLINK-5033对提升网络覆盖容量与稳定性起到支撑作用,但也引发天文观测干扰等争议讨论。

基本信息
目录编号:
55412
目录名称:
STARLINK-5033
国际标识:
2023-014X
轨道中心:
EARTH
卫星名称:
星链-5033
卫星全名:
星链-5033 (STARLINK-5033 )
卫星状态:
已陨落 最后检测时间 2025-03-22
发射日期:
2023-01-31 UTC
国别 :
美国 (US)
星等 :
--
轨道信息
数据来源 国际轨道数据
星历时间: 2025-03-22T19:53:18+0800
轨道信息已过期449天
半长轴: 6520.455km
偏心率: 0.0004666
轨道倾角: 69.982°
近地点辐角 220.217°
升交点赤经 236.631°
平近点角 203.392°
近地点: 139.277km
远地点: 145.363km
周期: 87.333分钟
每日圈数: 16.488681
详细信息
固有亮度:
5
最大亮度:
2.5
卫星平台:
Starlink v1.5
覆盖范围:
全球
运营商:
太空探索技术公司
运营商所在国:
美国
制造商(研发单位):
太空探索技术公司
制造商所在国:
美国
使用方式:
暂无
卫星简介
星链(Starlink)计划是由太空探索技术公司(SpaceX)提出的一个巨型低轨卫星互联网星座项目,计划在2019年至2024年间在太空搭建由约1.2万颗卫星组成的“星链”网络,其中1584颗将部署在地球上空550千米处的近地轨道,并从2020年开始工作。该卫星仍在工作。